| time (UTC) | temp F | wind direction | speed MPH | gust MPH | rain 1hr in | rain 24hr in | rain mn in | humidity % | barometer mb |
| 20260902031543 | 66 | 101 | 3.0 | 5.0 | 0.00 | 0.55 | 0.55 | 97 | 1022.2 |
| 20260902031040 | 66 | 116 | 3.0 | 3.0 | 0.00 | 0.55 | 0.55 | 97 | 1022.3 |
| 20260902030534 | 66 | 131 | 5.0 | 6.0 | 0.00 | 0.55 | 0.55 | 97 | 1022.3 |
| 20260902030034 | 67 | 52 | 0.0 | 1.0 | 0.00 | 0.55 | 0.55 | 97 | 1022.3 |
| 20260902025528 | 67 | 159 | 2.0 | 7.0 | 0.00 | 0.55 | 0.55 | 97 | 1022.5 |
| 20260902025024 | 66 | 128 | 3.0 | 6.0 | 0.00 | 0.55 | 0.55 | 97 | 1022.7 |
| 20260902024519 | 66 | 88 | 1.0 | 6.0 | 0.00 | 0.55 | 0.55 | 97 | 1022.6 |
| 20260902024014 | 66 | 143 | 5.0 | 6.0 | 0.00 | 0.55 | 0.55 | 97 | 1022.6 |
| 20260902023510 | 67 | 106 | 3.0 | 8.0 | 0.00 | 0.55 | 0.55 | 97 | 1022.6 |
| 20260902023010 | 67 | 120 | 3.0 | 5.0 | 0.00 | 0.55 | 0.55 | 97 | 1022.5 |
| 20260902022504 | 67 | 122 | 3.0 | 5.0 | 0.00 | 0.55 | 0.55 | 97 | 1022.5 |
| 20260902022000 | 67 | 149 | 3.0 | 5.0 | 0.00 | 0.55 | 0.55 | 97 | 1022.6 |
| 20260902021455 | 67 | 106 | 1.0 | 3.0 | 0.00 | 0.55 | 0.55 | 97 | 1022.6 |
| 20260902020950 | 67 | 117 | 3.0 | 3.0 | 0.00 | 0.55 | 0.55 | 97 | 1022.9 |
| 20260902020446 | 67 | 133 | 3.0 | 5.0 | 0.00 | 0.55 | 0.55 | 97 | 1022.8 |
| 20260902015942 | 67 | 122 | 2.0 | 3.0 | 0.00 | 0.55 | 0.55 | 97 | 1022.8 |
| 20260902015437 | 67 | 159 | 2.0 | 2.0 | 0.00 | 0.55 | 0.55 | 98 | 1022.6 |
| 20260902014932 | 67 | 133 | 1.0 | 2.0 | 0.00 | 0.55 | 0.55 | 98 | 1022.8 |
| 20260902014429 | 67 | 79 | 0.0 | 0.0 | 0.00 | 0.55 | 0.55 | 97 | 1022.7 |
| 20260902013928 | 67 | 74 | 0.0 | 2.0 | 0.00 | 0.55 | 0.55 | 97 | 1022.4 |
| 20260902013424 | 67 | 105 | 0.0 | 0.0 | 0.00 | 0.55 | 0.55 | 97 | 1022.4 |
| 20260902012919 | 67 | 42 | 0.0 | 0.0 | 0.00 | 0.55 | 0.55 | 97 | 1022.5 |
| 20260902012414 | 67 | 48 | 0.0 | 0.0 | 0.00 | 0.55 | 0.55 | 97 | 1022.4 |
| 20260902011910 | 67 | 47 | 0.0 | 0.0 | 0.00 | 0.55 | 0.55 | 97 | 1022.4 |
| 20260902011404 | 67 | 181 | 2.0 | 2.0 | 0.00 | 0.55 | 0.55 | 97 | 1022.3 |
| 20260902010859 | 67 | 126 | 2.0 | 2.0 | 0.00 | 0.55 | 0.55 | 97 | 1022.3 |
| 20260902010353 | 67 | 118 | 1.0 | 3.0 | 0.00 | 0.55 | 0.55 | 97 | 1022.2 |
| 20260902005852 | 67 | 103 | 2.0 | 2.0 | 0.00 | 0.55 | 0.55 | 97 | 1022.0 |
| 20260902005347 | 67 | 139 | 1.0 | 2.0 | 0.00 | 0.55 | 0.55 | 97 | 1022.0 |
| 20260902004843 | 67 | 93 | 1.0 | 2.0 | 0.00 | 0.55 | 0.55 | 97 | 1022.0 |
| 20260902004342 | 67 | 113 | 2.0 | 5.0 | 0.00 | 0.55 | 0.55 | 97 | 1021.6 |
| 20260902003838 | 67 | 139 | 3.0 | 3.0 | 0.00 | 0.55 | 0.55 | 97 | 1021.7 |
| 20260902003333 | 67 | 144 | 2.0 | 2.0 | 0.00 | 0.55 | 0.55 | 97 | 1021.8 |
| 20260902002828 | 67 | 136 | 1.0 | 2.0 | 0.00 | 0.55 | 0.55 | 97 | 1021.7 |
| 20260902002322 | 67 | 75 | 0.0 | 1.0 | 0.00 | 0.55 | 0.55 | 97 | 1021.8 |
| 20260902001818 | 67 | 133 | 1.0 | 1.0 | 0.00 | 0.55 | 0.55 | 97 | 1021.8 |
| 20260902001313 | 67 | 71 | 0.0 | 2.0 | 0.00 | 0.55 | 0.55 | 97 | 1021.7 |
| 20260902000813 | 67 | 24 | 0.0 | 0.0 | 0.00 | 0.55 | 0.55 | 97 | 1021.8 |
| 20260902000307 | 67 | 65 | 0.0 | 1.0 | 0.00 | 0.55 | 0.55 | 97 | 1021.6 |
| 20260901235802 | 67 | 98 | 0.0 | 2.0 | 0.00 | 0.55 | 0.55 | 97 | 1021.5 |
| 20260901235257 | 67 | 46 | 0.0 | 2.0 | 0.00 | 0.55 | 0.55 | 97 | 1021.4 |
| 20260901234756 | 67 | 113 | 1.0 | 2.0 | 0.00 | 0.55 | 0.55 | 97 | 1021.3 |
| 20260901234252 | 67 | 58 | 0.0 | 1.0 | 0.00 | 0.55 | 0.55 | 97 | 1021.4 |
| 20260901233746 | 67 | 59 | 0.0 | 1.0 | 0.00 | 0.55 | 0.55 | 97 | 1021.6 |
| 20260901233242 | 67 | 15 | 0.0 | 1.0 | 0.00 | 0.55 | 0.55 | 97 | 1021.5 |
| 20260901232743 | 67 | 59 | 0.0 | 0.0 | 0.00 | 0.55 | 0.55 | 97 | 1021.4 |
| 20260901232238 | 67 | 71 | 0.0 | 1.0 | 0.00 | 0.55 | 0.55 | 97 | 1021.4 |
| 20260901231733 | 67 | 64 | 1.0 | 2.0 | 0.00 | 0.55 | 0.55 | 97 | 1021.5 |
| 20260901231230 | 67 | 82 | 3.0 | 3.0 | 0.00 | 0.55 | 0.55 | 97 | 1021.4 |
| 20260901230720 | 67 | 117 | 3.0 | 5.0 | 0.00 | 0.55 | 0.55 | 97 | 1021.3 |
| 20260901230219 | 67 | 116 | 3.0 | 5.0 | 0.00 | 0.55 | 0.55 | 97 | 1021.4 |
| 20260901225715 | 67 | 132 | 4.0 | 5.0 | 0.00 | 0.55 | 0.55 | 96 | 1021.1 |
| 20260901225209 | 67 | 109 | 3.0 | 3.0 | 0.00 | 0.55 | 0.55 | 96 | 1021.4 |
| 20260901224705 | 67 | 122 | 4.0 | 5.0 | 0.00 | 0.55 | 0.55 | 96 | 1021.4 |
| 20260901224201 | 67 | 153 | 2.0 | 5.0 | 0.00 | 0.55 | 0.55 | 96 | 1021.3 |
| 20260901223657 | 67 | 121 | 3.0 | 3.0 | 0.00 | 0.55 | 0.55 | 97 | 1021.4 |
| 20260901223157 | 67 | 122 | 5.0 | 7.0 | 0.00 | 0.55 | 0.55 | 97 | 1021.4 |
| 20260901222653 | 67 | 127 | 3.0 | 5.0 | 0.00 | 0.55 | 0.55 | 97 | 1021.4 |
| 20260901222149 | 67 | 146 | 3.0 | 5.0 | 0.00 | 0.55 | 0.55 | 97 | 1021.3 |
| 20260901221645 | 67 | 108 | 4.0 | 5.0 | 0.00 | 0.55 | 0.55 | 97 | 1021.3 |
| 20260901221140 | 67 | 142 | 2.0 | 6.0 | 0.00 | 0.55 | 0.55 | 97 | 1021.3 |
| 20260901220639 | 67 | 126 | 4.0 | 5.0 | 0.00 | 0.55 | 0.55 | 97 | 1021.4 |
| 20260901220139 | 67 | 44 | 0.0 | 3.0 | 0.00 | 0.55 | 0.55 | 97 | 1021.4 |
| 20260901215638 | 67 | 129 | 5.0 | 6.0 | 0.00 | 0.55 | 0.55 | 97 | 1021.3 |
| 20260901215133 | 68 | 66 | 0.0 | 1.0 | 0.00 | 0.55 | 0.55 | 97 | 1021.2 |
| 20260901214631 | 67 | 328 | 0.0 | 1.0 | 0.00 | 0.55 | 0.55 | 97 | 1021.2 |
| 20260901214130 | 67 | 328 | 0.0 | 1.0 | 0.00 | 0.55 | 0.55 | 97 | 1021.3 |
| 20260901213625 | 67 | 33 | 1.0 | 1.0 | 0.00 | 0.55 | 0.55 | 97 | 1021.5 |
| 20260901213119 | 67 | 120 | 2.0 | 3.0 | 0.00 | 0.55 | 0.55 | 97 | 1021.4 |
| 20260901212614 | 67 | 97 | 2.0 | 5.0 | 0.00 | 0.55 | 0.55 | 97 | 1021.2 |
| 20260901212110 | 67 | 114 | 2.0 | 6.0 | 0.00 | 0.55 | 0.55 | 97 | 1021.2 |
| 20260901211604 | 67 | 99 | 4.0 | 5.0 | 0.00 | 0.55 | 0.55 | 97 | 1021.2 |
| 20260901211101 | 67 | 43 | 1.0 | 6.0 | 0.00 | 0.55 | 0.55 | 97 | 1021.0 |
| 20260901210556 | 67 | 136 | 1.0 | 5.0 | 0.00 | 0.55 | 0.55 | 97 | 1021.1 |
| 20260901210052 | 67 | 28 | 0.0 | 2.0 | 0.00 | 0.55 | 0.55 | 97 | 1021.2 |
| 20260901205548 | 67 | 119 | 5.0 | 7.0 | 0.00 | 0.55 | 0.55 | 97 | 1021.0 |
| 20260901205048 | 68 | 121 | 3.0 | 7.0 | 0.00 | 0.55 | 0.55 | 97 | 1020.8 |
| 20260901204544 | 68 | 100 | 3.0 | 5.0 | 0.00 | 0.55 | 0.55 | 97 | 1021.0 |
| 20260901204039 | 67 | 89 | 6.0 | 8.0 | 0.00 | 0.55 | 0.55 | 97 | 1020.9 |
| 20260901203533 | 68 | 118 | 4.0 | 5.0 | 0.00 | 0.55 | 0.55 | 97 | 1021.1 |
| 20260901203028 | 68 | 123 | 1.0 | 5.0 | 0.00 | 0.55 | 0.55 | 97 | 1021.0 |
| 20260901202523 | 68 | 78 | 2.0 | 3.0 | 0.05 | 0.55 | 0.55 | 97 | 1021.1 |
| 20260901202019 | 67 | 111 | 3.0 | 3.0 | 0.00 | 0.54 | 0.54 | 97 | 1021.2 |
| 20260901201514 | 67 | 111 | 3.0 | 3.0 | 0.00 | 0.54 | 0.54 | 97 | 1021.1 |
| 20260901201008 | 67 | 85 | 1.0 | 1.0 | 0.00 | 0.54 | 0.54 | 97 | 1021.2 |
| 20260901200503 | 67 | 85 | 1.0 | 5.0 | 0.00 | 0.54 | 0.54 | 97 | 1021.3 |
| 20260901200003 | 67 | 71 | 2.0 | 3.0 | 0.00 | 0.54 | 0.54 | 97 | 1021.4 |
| 20260901195500 | 67 | 144 | 3.0 | 5.0 | 0.00 | 0.54 | 0.54 | 97 | 1021.3 |
| 20260901194954 | 67 | 95 | 4.0 | 6.0 | 0.00 | 0.54 | 0.54 | 97 | 1021.4 |
| 20260901194450 | 67 | 113 | 3.0 | 5.0 | 0.00 | 0.54 | 0.54 | 97 | 1021.4 |
| 20260901193946 | 67 | 55 | 2.0 | 7.0 | 0.00 | 0.54 | 0.54 | 97 | 1021.5 |
| 20260901193445 | 68 | 111 | 3.0 | 6.0 | 0.00 | 0.54 | 0.54 | 97 | 1021.2 |
| 20260901192944 | 68 | 142 | 1.0 | 5.0 | 0.00 | 0.54 | 0.54 | 97 | 1021.4 |
| 20260901192440 | 67 | 81 | 1.0 | 5.0 | 0.00 | 0.54 | 0.54 | 97 | 1021.3 |
| 20260901191936 | 67 | 116 | 4.0 | 5.0 | 0.00 | 0.54 | 0.54 | 97 | 1021.4 |
| 20260901191432 | 68 | 84 | 4.0 | 5.0 | 0.07 | 0.54 | 0.54 | 97 | 1021.0 |
| 20260901190928 | 68 | 10 | 0.0 | 0.0 | 0.07 | 0.54 | 0.54 | 97 | 1021.0 |
| 20260901190428 | 68 | 42 | 0.0 | 0.0 | 0.00 | 0.53 | 0.53 | 97 | 1021.1 |
| 20260901185925 | 68 | 45 | 0.0 | 1.0 | 0.00 | 0.53 | 0.53 | 97 | 1021.2 |
| 20260901185426 | 68 | 40 | 0.0 | 2.0 | 0.00 | 0.53 | 0.53 | 97 | 1020.8 |
| 20260901184926 | 68 | 123 | 3.0 | 5.0 | 0.00 | 0.53 | 0.53 | 97 | 1020.9 |
| 20260901184421 | 68 | 110 | 1.0 | 1.0 | 0.00 | 0.53 | 0.53 | 97 | 1021.0 |
| 20260901183916 | 68 | 45 | 1.0 | 2.0 | 0.00 | 0.53 | 0.53 | 97 | 1020.9 |
| 20260901183416 | 68 | 74 | 1.0 | 3.0 | 0.00 | 0.53 | 0.53 | 97 | 1020.9 |
| 20260901182907 | 68 | 47 | 1.0 | 1.0 | 0.00 | 0.53 | 0.53 | 97 | 1020.8 |
| 20260901182407 | 68 | 109 | 3.0 | 3.0 | 0.00 | 0.53 | 0.53 | 97 | 1020.8 |
| 20260901181856 | 68 | 138 | 3.0 | 3.0 | 0.00 | 0.53 | 0.53 | 97 | 1020.8 |
| 20260901181351 | 68 | 69 | 1.0 | 1.0 | 0.00 | 0.53 | 0.53 | 97 | 1020.8 |
| 20260901180850 | 68 | 106 | 2.0 | 2.0 | 0.00 | 0.53 | 0.53 | 97 | 1020.8 |
| 20260901180349 | 67 | 33 | 1.0 | 1.0 | 0.05 | 0.53 | 0.53 | 97 | 1020.7 |
| 20260901175848 | 67 | 61 | 0.0 | 1.0 | 0.05 | 0.53 | 0.53 | 97 | 1021.1 |
| 20260901175343 | 67 | 107 | 1.0 | 2.0 | 0.00 | 0.52 | 0.52 | 97 | 1021.0 |
| 20260901174838 | 67 | 92 | 0.0 | 1.0 | 0.00 | 0.52 | 0.52 | 97 | 1020.9 |
| 20260901174334 | 67 | 10 | 1.0 | 3.0 | 0.00 | 0.52 | 0.52 | 97 | 1020.8 |
| 20260901173829 | 67 | 123 | 0.0 | 1.0 | 0.00 | 0.52 | 0.52 | 97 | 1020.7 |
| 20260901173324 | 67 | 18 | 0.0 | 1.0 | 0.00 | 0.52 | 0.52 | 97 | 1020.6 |
| 20260901172821 | 67 | 1 | 0.0 | 0.0 | 0.00 | 0.52 | 0.52 | 97 | 1020.7 |
| 20260901172320 | 67 | 1 | 0.0 | 0.0 | 0.00 | 0.52 | 0.52 | 97 | 1020.7 |
| 20260901171817 | 67 | 36 | 0.0 | 1.0 | 0.00 | 0.52 | 0.52 | 97 | 1020.7 |
| 20260901171316 | 67 | 56 | 3.0 | 3.0 | 0.00 | 0.52 | 0.52 | 97 | 1020.5 |
| 20260901170811 | 67 | 68 | 0.0 | 1.0 | 0.00 | 0.52 | 0.52 | 98 | 1020.8 |
| 20260901170310 | 67 | 68 | 0.0 | 1.0 | 0.00 | 0.52 | 0.52 | 98 | 1020.7 |
| 20260901165809 | 67 | 13 | 0.0 | 0.0 | 0.00 | 0.52 | 0.52 | 98 | 1020.6 |
| 20260901165306 | 67 | 73 | 2.0 | 3.0 | 0.00 | 0.52 | 0.52 | 98 | 1020.7 |
| 20260901164800 | 67 | 69 | 1.0 | 1.0 | 0.00 | 0.52 | 0.52 | 98 | 1020.5 |
| 20260901164255 | 67 | 108 | 2.0 | 2.0 | 0.00 | 0.52 | 0.52 | 98 | 1020.6 |
| 20260901163751 | 67 | 33 | 1.0 | 2.0 | 0.00 | 0.52 | 0.52 | 98 | 1020.8 |
| 20260901163245 | 67 | 33 | 1.0 | 2.0 | 0.00 | 0.52 | 0.52 | 98 | 1020.5 |
| 20260901162740 | 67 | 71 | 2.0 | 2.0 | 0.00 | 0.52 | 0.52 | 98 | 1020.6 |
| 20260901162239 | 67 | 71 | 4.0 | 5.0 | 0.00 | 0.52 | 0.52 | 98 | 1020.6 |
| 20260901161738 | 67 | 61 | 2.0 | 2.0 | 0.00 | 0.52 | 0.52 | 98 | 1020.7 |
| 20260901161233 | 67 | 61 | 2.0 | 2.0 | 0.00 | 0.52 | 0.52 | 98 | 1020.7 |
| 20260901160729 | 67 | 61 | 2.0 | 2.0 | 0.00 | 0.52 | 0.52 | 98 | 1020.6 |
| 20260901160225 | 67 | 61 | 2.0 | 2.0 | 0.00 | 0.52 | 0.52 | 98 | 1020.6 |
| 20260901155723 | 67 | 61 | 2.0 | 2.0 | 0.00 | 0.52 | 0.52 | 98 | 1020.7 |
| 20260901155219 | 67 | 61 | 2.0 | 2.0 | 0.00 | 0.52 | 0.52 | 98 | 1020.6 |
| 20260901154714 | 67 | 138 | 2.0 | 2.0 | 0.00 | 0.52 | 0.52 | 98 | 1020.5 |
| 20260901154209 | 67 | 138 | 2.0 | 2.0 | 0.00 | 0.52 | 0.52 | 98 | 1020.5 |
| 20260901153704 | 67 | 173 | 1.0 | 5.0 | 0.00 | 0.52 | 0.52 | 98 | 1020.2 |
| 20260901153203 | 67 | 157 | 5.0 | 7.0 | 0.00 | 0.52 | 0.52 | 98 | 1020.4 |
| 20260901152657 | 67 | 201 | 3.0 | 6.0 | 0.00 | 0.52 | 0.52 | 98 | 1020.5 |
| 20260901152150 | 67 | 207 | 3.0 | 3.0 | 0.00 | 0.52 | 0.52 | 98 | 1020.2 |
| 20260901151647 | 67 | 162 | 3.0 | 7.0 | 0.00 | 0.52 | 0.52 | 98 | 1020.4 |
| 20260901151146 | 67 | 192 | 2.0 | 6.0 | 0.00 | 0.52 | 0.52 | 98 | 1020.6 |
| 20260901150644 | 66 | 38 | 2.0 | 3.0 | 0.00 | 0.52 | 0.52 | 98 | 1020.6 |
| 20260901150144 | 66 | 38 | 2.0 | 3.0 | 0.07 | 0.52 | 0.52 | 98 | 1020.6 |
| 20260901145642 | 66 | 38 | 2.0 | 3.0 | 0.19 | 0.52 | 0.52 | 98 | 1020.9 |
| 20260901145141 | 66 | 72 | 1.0 | 2.0 | 0.12 | 0.51 | 0.51 | 98 | 1021.0 |
| 20260901144637 | 66 | 53 | 1.0 | 2.0 | 0.00 | 0.49 | 0.49 | 98 | 1021.0 |
| 20260901144132 | 66 | 53 | 1.0 | 2.0 | 0.07 | 0.49 | 0.49 | 98 | 1021.2 |
| 20260901143627 | 66 | 53 | 1.0 | 2.0 | 0.07 | 0.49 | 0.49 | 98 | 1021.2 |
| 20260901143124 | 66 | 345 | 0.0 | 0.0 | 0.00 | 0.48 | 0.48 | 98 | 1021.3 |
| 20260901142619 | 66 | 345 | 0.0 | 0.0 | 0.00 | 0.48 | 0.48 | 98 | 1021.3 |
| 20260901142119 | 66 | 327 | 1.0 | 1.0 | 0.00 | 0.48 | 0.48 | 98 | 1021.2 |
| 20260901141613 | 66 | 348 | 0.0 | 1.0 | 0.00 | 0.48 | 0.48 | 98 | 1021.2 |
| 20260901141108 | 66 | 119 | 3.0 | 3.0 | 0.00 | 0.48 | 0.48 | 98 | 1021.0 |
| 20260901140607 | 66 | 99 | 5.0 | 6.0 | 0.00 | 0.48 | 0.48 | 98 | 1021.1 |
| 20260901140107 | 66 | 112 | 4.0 | 6.0 | 0.00 | 0.48 | 0.48 | 98 | 1020.9 |
| 20260901135606 | 66 | 138 | 2.0 | 2.0 | 0.00 | 0.48 | 0.48 | 98 | 1020.8 |
| 20260901135102 | 66 | 138 | 2.0 | 2.0 | 0.00 | 0.48 | 0.48 | 98 | 1020.8 |
| 20260901134558 | 66 | 138 | 2.0 | 2.0 | 0.00 | 0.48 | 0.48 | 98 | 1021.0 |
| 20260901134052 | 66 | 138 | 2.0 | 2.0 | 0.00 | 0.48 | 0.48 | 98 | 1021.0 |
| 20260901133551 | 66 | 138 | 2.0 | 2.0 | 0.00 | 0.48 | 0.48 | 98 | 1021.0 |
| 20260901133050 | 66 | 138 | 2.0 | 2.0 | 0.00 | 0.48 | 0.48 | 98 | 1020.9 |
| 20260901132544 | 66 | 138 | 2.0 | 2.0 | 0.00 | 0.48 | 0.48 | 98 | 1020.8 |
| 20260901132039 | 66 | 138 | 2.0 | 2.0 | 0.00 | 0.48 | 0.48 | 98 | 1021.1 |
| 20260901131539 | 66 | 110 | 3.0 | 3.0 | 0.00 | 0.48 | 0.48 | 98 | 1020.9 |
| 20260901131034 | 66 | 104 | 1.0 | 2.0 | 0.00 | 0.48 | 0.48 | 98 | 1021.1 |
| 20260901130533 | 66 | 34 | 1.0 | 1.0 | 0.00 | 0.48 | 0.48 | 98 | 1021.1 |
| 20260901130032 | 66 | 131 | 2.0 | 2.0 | 0.00 | 0.48 | 0.48 | 98 | 1021.1 |
| 20260901125531 | 66 | 166 | 2.0 | 2.0 | 0.00 | 0.48 | 0.48 | 98 | 1021.1 |
| 20260901125026 | 65 | 141 | 3.0 | 3.0 | 0.00 | 0.48 | 0.48 | 98 | 1021.2 |
| 20260901124521 | 65 | 91 | 2.0 | 3.0 | 0.00 | 0.48 | 0.48 | 98 | 1021.2 |
| 20260901124022 | 65 | 112 | 2.0 | 2.0 | 0.00 | 0.48 | 0.48 | 98 | 1021.4 |
| 20260901123516 | 65 | 112 | 2.0 | 2.0 | 0.00 | 0.48 | 0.48 | 98 | 1021.4 |
| 20260901123015 | 65 | 44 | 1.0 | 1.0 | 0.59 | 0.48 | 0.48 | 98 | 1021.3 |
| 20260901122514 | 65 | 121 | 2.0 | 2.0 | 0.00 | 0.38 | 0.38 | 98 | 1021.5 |
| 20260901122013 | 65 | 121 | 2.0 | 2.0 | 0.00 | 0.38 | 0.38 | 98 | 1021.4 |
| 20260901121508 | 65 | 121 | 2.0 | 2.0 | 0.00 | 0.38 | 0.38 | 98 | 1021.4 |
| 20260901121004 | 65 | 121 | 2.0 | 2.0 | 0.00 | 0.38 | 0.38 | 98 | 1021.6 |
| 20260901120503 | 65 | 121 | 2.0 | 2.0 | 0.00 | 0.38 | 0.38 | 98 | 1021.8 |
| 20260901115959 | 65 | 121 | 2.0 | 2.0 | 0.00 | 0.38 | 0.38 | 98 | 1021.8 |
| 20260901115454 | 65 | 121 | 2.0 | 2.0 | 0.00 | 0.38 | 0.38 | 98 | 1021.7 |
| 20260901114951 | 65 | 121 | 2.0 | 2.0 | 0.00 | 0.38 | 0.38 | 98 | 1021.5 |
| 20260901114447 | 65 | 77 | 2.0 | 2.0 | 0.24 | 0.38 | 0.38 | 98 | 1021.6 |
| 20260901113944 | 65 | 134 | 1.0 | 1.0 | 0.24 | 0.38 | 0.38 | 98 | 1021.4 |
| 20260901113444 | 64 | 130 | 3.0 | 3.0 | 0.00 | 0.34 | 0.34 | 98 | 1021.5 |
| 20260901112940 | 64 | 130 | 3.0 | 3.0 | 0.00 | 0.34 | 0.34 | 98 | 1021.6 |
| 20260901112435 | 64 | 130 | 3.0 | 3.0 | 0.00 | 0.34 | 0.34 | 98 | 1021.6 |
| 20260901111929 | 64 | 130 | 3.0 | 3.0 | 0.00 | 0.34 | 0.34 | 98 | 1021.5 |
| 20260901111429 | 64 | 130 | 3.0 | 3.0 | 0.00 | 0.34 | 0.34 | 98 | 1021.3 |
| 20260901110926 | 64 | 130 | 3.0 | 3.0 | 0.00 | 0.34 | 0.34 | 98 | 1021.4 |
| 20260901110423 | 64 | 130 | 3.0 | 3.0 | 0.00 | 0.34 | 0.34 | 98 | 1021.3 |
| 20260901105918 | 64 | 130 | 3.0 | 3.0 | 0.00 | 0.34 | 0.34 | 98 | 1021.3 |
| 20260901105414 | 64 | 130 | 3.0 | 3.0 | 0.00 | 0.34 | 0.34 | 98 | 1021.4 |
| 20260901104909 | 64 | 130 | 3.0 | 3.0 | 0.00 | 0.34 | 0.34 | 98 | 1021.3 |
| 20260901104404 | 64 | 130 | 3.0 | 3.0 | 0.00 | 0.34 | 0.34 | 98 | 1021.4 |
| 20260901103900 | 64 | 94 | 1.0 | 1.0 | 0.00 | 0.34 | 0.34 | 98 | 1021.3 |
| 20260901103354 | 64 | 90 | 0.0 | 1.0 | 0.00 | 0.34 | 0.34 | 98 | 1021.4 |
| 20260901102849 | 64 | 351 | 0.0 | 1.0 | 0.00 | 0.34 | 0.34 | 98 | 1021.3 |
| 20260901102349 | 64 | 33 | 1.0 | 2.0 | 0.00 | 0.34 | 0.34 | 98 | 1021.5 |
| 20260901101844 | 64 | 8 | 3.0 | 3.0 | 0.07 | 0.34 | 0.34 | 98 | 1021.5 |
| 20260901101339 | 64 | 28 | 3.0 | 3.0 | 0.00 | 0.33 | 0.33 | 98 | 1021.3 |
| 20260901100839 | 64 | 62 | 0.0 | 1.0 | 0.00 | 0.33 | 0.33 | 98 | 1021.1 |
| 20260901100339 | 64 | 90 | 1.0 | 2.0 | 0.00 | 0.33 | 0.33 | 98 | 1021.2 |
| 20260901095833 | 64 | 66 | 3.0 | 3.0 | 0.05 | 0.33 | 0.33 | 98 | 1020.8 |
| 20260901095330 | 64 | 18 | 3.0 | 6.0 | 0.05 | 0.33 | 0.33 | 98 | 1021.0 |
| 20260901094824 | 64 | 26 | 1.0 | 1.0 | 0.00 | 0.32 | 0.32 | 98 | 1020.9 |
| 20260901094319 | 64 | 26 | 1.0 | 1.0 | 0.12 | 0.32 | 0.32 | 98 | 1021.0 |
| 20260901093815 | 64 | 26 | 1.0 | 1.0 | 0.12 | 0.32 | 0.32 | 98 | 1020.8 |
| 20260901093313 | 64 | 346 | 1.0 | 1.0 | 0.00 | 0.30 | 0.30 | 98 | 1020.9 |
| 20260901092810 | 64 | 346 | 1.0 | 1.0 | 0.26 | 0.30 | 0.30 | 98 | 1020.8 |
| 20260901092306 | 64 | 141 | 0.0 | 1.0 | 0.00 | 0.26 | 0.26 | 98 | 1020.8 |
| 20260901091801 | 64 | 141 | 0.0 | 1.0 | 0.00 | 0.26 | 0.26 | 98 | 1020.7 |
| 20260901091255 | 64 | 141 | 0.0 | 1.0 | 0.00 | 0.26 | 0.26 | 98 | 1020.6 |
| 20260901090750 | 64 | 141 | 0.0 | 1.0 | 0.00 | 0.26 | 0.26 | 98 | 1020.7 |
| 20260901090245 | 64 | 141 | 0.0 | 1.0 | 0.28 | 0.26 | 0.26 | 98 | 1020.7 |
| 20260901085741 | 64 | 133 | 3.0 | 3.0 | 0.28 | 0.26 | 0.26 | 98 | 1020.5 |
| 20260901085236 | 65 | 113 | 2.0 | 2.0 | 0.12 | 0.21 | 0.21 | 98 | 1020.5 |
| 20260901084732 | 65 | 113 | 2.0 | 2.0 | 0.12 | 0.21 | 0.21 | 98 | 1020.7 |
| 20260901084228 | 65 | 115 | 3.0 | 3.0 | 0.00 | 0.19 | 0.19 | 98 | 1020.8 |
| 20260901083723 | 65 | 134 | 1.0 | 3.0 | 0.00 | 0.19 | 0.19 | 98 | 1020.7 |
| 20260901083222 | 65 | 100 | 2.0 | 3.0 | 0.00 | 0.19 | 0.19 | 98 | 1020.8 |
| 20260901082721 | 65 | 104 | 1.0 | 2.0 | 0.07 | 0.19 | 0.19 | 98 | 1020.8 |
| 20260901082217 | 65 | 137 | 5.0 | 6.0 | 0.19 | 0.19 | 0.19 | 97 | 1020.7 |
| 20260901081712 | 65 | 143 | 0.0 | 0.0 | 0.50 | 0.17 | 0.17 | 97 | 1020.9 |
| 20260901081212 | 65 | 25 | 0.0 | 0.0 | 0.42 | 0.16 | 0.16 | 97 | 1020.9 |
| 20260901080707 | 65 | 121 | 3.0 | 3.0 | 0.00 | 0.09 | 0.09 | 97 | 1021.1 |
| 20260901080206 | 65 | 121 | 3.0 | 3.0 | 0.00 | 0.09 | 0.09 | 97 | 1020.9 |
| 20260901075700 | 65 | 121 | 3.0 | 3.0 | 0.00 | 0.09 | 0.09 | 97 | 1020.6 |
| 20260901075200 | 65 | 121 | 3.0 | 3.0 | 0.17 | 0.09 | 0.09 | 97 | 1021.3 |
| 20260901074659 | 65 | 30 | 0.0 | 0.0 | 0.00 | 0.06 | 0.06 | 96 | 1021.2 |
| 20260901074155 | 65 | 30 | 0.0 | 0.0 | 0.00 | 0.06 | 0.06 | 96 | 1020.9 |
| 20260901073651 | 65 | 30 | 0.0 | 0.0 | 0.12 | 0.06 | 0.06 | 96 | 1021.4 |
| 20260901073146 | 65 | 30 | 0.0 | 0.0 | 0.38 | 0.06 | 0.06 | 96 | 1021.2 |
| 20260901072642 | 65 | 44 | 0.0 | 1.0 | 0.14 | 0.02 | 0.02 | 96 | 1021.4 |
| 20260901072136 | 65 | 99 | 0.0 | 1.0 | 0.00 | 0.00 | 0.00 | 96 | 1021.5 |
| 20260901071631 | 65 | 348 | 0.0 | 0.0 | 0.00 | 0.00 | 0.00 | 96 | 1021.5 |
| 20260901071130 | 65 | 2 | 0.0 | 0.0 | 0.00 | 0.00 | 0.00 | 96 | 1021.4 |
| 20260901070619 | 65 | 18 | 0.0 | 0.0 | 0.00 | 0.00 | 0.00 | 96 | 1021.6 |
| 20260901070115 | 65 | 355 | 0.0 | 0.0 | 0.00 | 0.00 | 0.00 | 96 | 1021.8 |
| 20260901065609 | 65 | 358 | 0.0 | 0.0 | 0.00 | 0.00 | 0.00 | 96 | 1021.5 |
| 20260901065108 | 65 | 26 | 0.0 | 0.0 | 0.00 | 0.00 | 0.00 | 96 | 1021.5 |
| 20260901064606 | 65 | 45 | 0.0 | 1.0 | 0.00 | 0.00 | 0.00 | 96 | 1021.8 |
| 20260901064102 | 65 | 40 | 0.0 | 0.0 | 0.00 | 0.00 | 0.00 | 96 | 1021.6 |
| 20260901063558 | 65 | 40 | 0.0 | 0.0 | 0.00 | 0.00 | 0.00 | 96 | 1021.7 |
| 20260901063049 | 65 | 40 | 0.0 | 0.0 | 0.00 | 0.00 | 0.00 | 96 | 1021.8 |
| 20260901062544 | 65 | 40 | 0.0 | 0.0 | 0.00 | 0.00 | 0.00 | 96 | 1021.9 |
| 20260901062040 | 65 | 40 | 0.0 | 0.0 | 0.00 | 0.00 | 0.00 | 96 | 1022.0 |
| 20260901061536 | 65 | 40 | 0.0 | 0.0 | 0.00 | 0.00 | 0.00 | 96 | 1022.1 |
| 20260901061030 | 65 | 40 | 0.0 | 0.0 | 0.00 | 0.00 | 0.00 | 96 | 1021.8 |
| 20260901060525 | 65 | 220 | 0.0 | 0.0 | 0.00 | 0.00 | 0.00 | 96 | 1022.0 |
| 20260901060020 | 65 | 220 | 0.0 | 0.0 | 0.00 | 0.00 | 0.00 | 96 | 1021.7 |
| 20260901055516 | 65 | 220 | 0.0 | 0.0 | 0.00 | 0.00 | 0.00 | 96 | 1022.1 |
| 20260901055013 | 65 | 220 | 0.0 | 0.0 | 0.00 | 0.00 | 0.00 | 96 | 1021.9 |
| 20260901054509 | 65 | 220 | 0.0 | 0.0 | 0.00 | 0.00 | 0.00 | 96 | 1022.1 |
| 20260901054005 | 65 | 191 | 1.0 | 1.0 | 0.00 | 0.00 | 0.00 | 96 | 1022.1 |
| 20260901053501 | 65 | 14 | 0.0 | 0.0 | 0.00 | 0.00 | 0.00 | 96 | 1022.2 |
| 20260901052956 | 65 | 304 | 0.0 | 0.0 | 0.00 | 0.00 | 0.00 | 96 | 1022.4 |
| 20260901052451 | 65 | 304 | 0.0 | 0.0 | 0.00 | 0.00 | 0.00 | 96 | 1022.6 |
| 20260901051944 | 65 | 304 | 0.0 | 0.0 | 0.00 | 0.00 | 0.00 | 96 | 1022.5 |
| 20260901051440 | 65 | 304 | 0.0 | 0.0 | 0.00 | 0.00 | 0.00 | 96 | 1022.6 |
| 20260901050939 | 65 | 304 | 0.0 | 0.0 | 0.00 | 0.00 | 0.00 | 96 | 1022.5 |
| 20260901050435 | 65 | 304 | 0.0 | 0.0 | 0.00 | 0.00 | 0.00 | 96 | 1022.7 |
| 20260901045934 | 65 | 304 | 0.0 | 0.0 | 0.00 | 0.00 | 0.00 | 96 | 1022.6 |
| 20260901045430 | 65 | 304 | 0.0 | 0.0 | 0.00 | 0.00 | 0.00 | 96 | 1022.4 |
| 20260901044924 | 65 | 304 | 0.0 | 0.0 | 0.00 | 0.00 | 0.00 | 96 | 1022.6 |
| 20260901044420 | 65 | 304 | 0.0 | 0.0 | 0.00 | 0.00 | 0.00 | 96 | 1022.3 |
| 20260901043916 | 65 | 304 | 0.0 | 0.0 | 0.00 | 0.00 | 0.00 | 96 | 1022.6 |
| 20260901043412 | 65 | 336 | 0.0 | 0.0 | 0.00 | 0.00 | 0.00 | 96 | 1022.6 |
| 20260901042906 | 65 | 14 | 0.0 | 0.0 | 0.00 | 0.00 | 0.00 | 96 | 1022.5 |
| 20260901042401 | 65 | 9 | 0.0 | 1.0 | 0.00 | 0.00 | 0.00 | 96 | 1022.6 |
| 20260901041856 | 65 | 346 | 0.0 | 0.0 | 0.00 | 0.00 | 0.00 | 95 | 1022.6 |
| 20260901041351 | 65 | 55 | 0.0 | 0.0 | 0.00 | 0.00 | 0.00 | 95 | 1022.7 |
| 20260901040851 | 65 | 55 | 0.0 | 0.0 | 0.00 | 0.00 | 0.00 | 95 | 1022.7 |
| 20260901040350 | 65 | 75 | 1.0 | 1.0 | 0.00 | 0.00 | 0.00 | 95 | 1022.5 |
| 20260901035845 | 65 | 156 | 0.0 | 0.0 | 0.00 | 0.01 | 0.01 | 96 | 1022.2 |
| 20260901035343 | 65 | 121 | 1.0 | 1.0 | 0.00 | 0.01 | 0.01 | 96 | 1022.7 |
| 20260901034842 | 65 | 132 | 1.0 | 1.0 | 0.00 | 0.01 | 0.01 | 96 | 1022.7 |
| 20260901034337 | 65 | 106 | 0.0 | 0.0 | 0.00 | 0.01 | 0.01 | 96 | 1022.6 |
| 20260901033837 | 65 | 84 | 0.0 | 0.0 | 0.00 | 0.01 | 0.01 | 96 | 1022.7 |
| 20260901033336 | 65 | 17 | 0.0 | 0.0 | 0.00 | 0.01 | 0.01 | 96 | 1022.8 |
| 20260901032835 | 65 | 83 | 0.0 | 0.0 | 0.00 | 0.01 | 0.01 | 95 | 1022.6 |
| 20260901032334 | 65 | 36 | 0.0 | 1.0 | 0.00 | 0.01 | 0.01 | 95 | 1023.0 |